When you browse on this site, cookies collect data to enhance your experience and personalize the content and advertising you see.
Visit our Privacy Policy to learn more. By continuing to use the site, you agree to this use of cookies and data.
  • In Switzerland
  • List of Countries
  • For 7 days
  • Water Temperature
  • Weather Map
  • Weather Widgets
  • user-avatar
    Login

    Hourly Weather Muyinga

    Today, 3 April, Friday

    Time Temperature Precipitation Wind Pressure Humidity
    00:00 +16°C° 0.1 mm 0 mps 626 mmHg 94%
    01:00 +18°C° 0.1 mm 1 mps 626 mmHg 95%
    02:00 +16°C° 0.1 mm 1 mps 625 mmHg 95%
    03:00 +15°C° 0 mm 0 mps 626 mmHg 95%
    04:00 +15°C° 0 mm 0 mps 626 mmHg 95%
    05:00 +15°C° 0 mm 0 mps 626 mmHg 96%
    06:00 +16°C° 0 mm 0 mps 627 mmHg 94%
    07:00 +17°C° 0 mm 0 mps 627 mmHg 93%
    08:00 +18°C° 0 mm 0 mps 628 mmHg 92%
    09:00 +20°C° 0.1 mm 0 mps 629 mmHg 83%
    10:00 +24°C° 0.1 mm 1 mps 629 mmHg 73%
    11:00 +25°C° 0.1 mm 1 mps 629 mmHg 64%
    12:00 +26°C° 0.1 mm 1 mps 629 mmHg 64%
    13:00 +26°C° 0.1 mm 1 mps 628 mmHg 65%
    14:00 +26°C° 0.1 mm 1 mps 628 mmHg 65%
    15:00 +25°C° 1 mm 1 mps 627 mmHg 73%
    16:00 +24°C° 1 mm 1 mps 627 mmHg 81%
    17:00 +23°C° 1 mm 1 mps 627 mmHg 89%
    18:00 +21°C° 0.4 mm 1 mps 627 mmHg 90%
    19:00 +20°C° 0.4 mm 1 mps 627 mmHg 91%
    20:00 +19°C° 0.4 mm 1 mps 627 mmHg 92%
    21:00 +18°C° 0 mm 1 mps 627 mmHg 93%
    22:00 +18°C° 0 mm 1 mps 627 mmHg 94%
    23:00 +16°C° 0 mm 1 mps 627 mmHg 95%

    Tomorrow, 4 April, Saturday

    Time Temperature Precipitation Wind Pressure Humidity
    00:00 +16°C° 0 mm 1 mps 627 mmHg 96%
    01:00 +16°C° 0 mm 1 mps 627 mmHg 97%
    02:00 +16°C° 0 mm 1 mps 627 mmHg 97%
    03:00 +16°C° 0 mm 1 mps 627 mmHg 97%
    04:00 +16°C° 0 mm 1 mps 627 mmHg 97%
    05:00 +16°C° 0 mm 1 mps 627 mmHg 98%
    06:00 +18°C° 0 mm 1 mps 628 mmHg 96%
    07:00 +19°C° 0 mm 1 mps 629 mmHg 94%
    08:00 +20°C° 0 mm 1 mps 630 mmHg 92%
    09:00 +21°C° 0.1 mm 1 mps 630 mmHg 87%
    10:00 +21°C° 0.1 mm 2 mps 630 mmHg 83%
    11:00 +24°C° 0.1 mm 2 mps 630 mmHg 78%
    12:00 +24°C° 1.2 mm 2 mps 629 mmHg 79%
    13:00 +24°C° 1.2 mm 1 mps 629 mmHg 81%
    14:00 +24°C° 1.2 mm 1 mps 628 mmHg 82%
    15:00 +23°C° 1.6 mm 1 mps 627 mmHg 85%
    16:00 +22°C° 1.6 mm 1 mps 627 mmHg 88%
    17:00 +21°C° 1.6 mm 1 mps 626 mmHg 91%
    18:00 +20°C° 0.1 mm 1 mps 627 mmHg 91%
    19:00 +19°C° 0.1 mm 1 mps 627 mmHg 92%
    20:00 +16°C° 0.1 mm 0 mps 627 mmHg 93%
    21:00 +18°C° 0 mm 1 mps 627 mmHg 93%
    22:00 +18°C° 0 mm 1 mps 627 mmHg 93%
    23:00 +16°C° 0 mm 1 mps 628 mmHg 93%

    Day after tomorrow, 5 April, Sunday

    Time Temperature Precipitation Wind Pressure Humidity
    00:00 +16°C° 0 mm 1 mps 628 mmHg 94%
    01:00 +16°C° 0 mm 1 mps 627 mmHg 95%
    02:00 +16°C° 0 mm 1 mps 627 mmHg 96%
    03:00 +16°C° 0 mm 1 mps 627 mmHg 96%
    04:00 +16°C° 0 mm 1 mps 627 mmHg 96%
    05:00 +15°C° 0 mm 0 mps 627 mmHg 96%
    06:00 +16°C° 0 mm 0 mps 628 mmHg 95%
    07:00 +17°C° 0 mm 0 mps 629 mmHg 94%
    08:00 +18°C° 0 mm 0 mps 630 mmHg 93%
    09:00 +21°C° 1 mm 1 mps 630 mmHg 89%
    10:00 +22°C° 1 mm 1 mps 630 mmHg 84%
    11:00 +24°C° 1 mm 2 mps 630 mmHg 80%
    12:00 +24°C° 1.2 mm 2 mps 630 mmHg 80%
    13:00 +24°C° 1.2 mm 2 mps 629 mmHg 81%
    14:00 +24°C° 1.2 mm 1 mps 629 mmHg 81%
    15:00 +23°C° 1.5 mm 1 mps 628 mmHg 84%
    16:00 +22°C° 1.5 mm 1 mps 628 mmHg 87%
    17:00 +20°C° 1.5 mm 0 mps 628 mmHg 90%
    18:00 +19°C° 0.4 mm 0 mps 628 mmHg 90%
    19:00 +18°C° 0.4 mm 0 mps 628 mmHg 91%
    20:00 +17°C° 0.4 mm 0 mps 628 mmHg 91%
    21:00 +17°C° 0 mm 0 mps 628 mmHg 92%
    22:00 +16°C° 0 mm 0 mps 628 mmHg 93%
    23:00 +16°C° 0 mm 0 mps 628 mmHg 93%

    6 April, Monday

    Time Temperature Precipitation Wind Pressure Humidity
    00:00 +16°C° 0 mm 0 mps 628 mmHg 94%
    01:00 +18°C° 0 mm 1 mps 628 mmHg 94%
    02:00 +16°C° 0 mm 1 mps 627 mmHg 95%
    03:00 +16°C° 0 mm 1 mps 627 mmHg 94%
    04:00 +15°C° 0 mm 0 mps 627 mmHg 94%
    05:00 +15°C° 0 mm 0 mps 627 mmHg 94%
    06:00 +16°C° 0 mm 0 mps 628 mmHg 92%
    07:00 +17°C° 0 mm 0 mps 629 mmHg 91%
    08:00 +18°C° 0 mm 0 mps 630 mmHg 89%
    09:00 +20°C° 0.5 mm 0 mps 631 mmHg 82%
    10:00 +24°C° 0.5 mm 1 mps 631 mmHg 76%
    11:00 +25°C° 0.5 mm 1 mps 631 mmHg 69%
    12:00 +26°C° 0.5 mm 1 mps 630 mmHg 68%
    13:00 +26°C° 0.5 mm 1 mps 630 mmHg 67%
    14:00 +26°C° 0.5 mm 1 mps 629 mmHg 65%
    15:00 +25°C° 1 mm 1 mps 629 mmHg 72%
    16:00 +24°C° 1 mm 1 mps 628 mmHg 79%
    17:00 +22°C° 1 mm 0 mps 628 mmHg 86%
    18:00 +20°C° 0.9 mm 0 mps 628 mmHg 87%
    19:00 +19°C° 0.9 mm 0 mps 628 mmHg 87%
    20:00 +18°C° 0.9 mm 0 mps 629 mmHg 88%
    21:00 +17°C° 0 mm 0 mps 629 mmHg 89%
    22:00 +17°C° 0 mm 0 mps 629 mmHg 90%
    23:00 +16°C° 0 mm 0 mps 629 mmHg 91%

    7 April, Tuesday

    Time Temperature Precipitation Wind Pressure Humidity
    00:00 +16°C° 0 mm 0 mps 628 mmHg 91%
    01:00 +15°C° 0 mm 0 mps 628 mmHg 92%
    02:00 +15°C° 0 mm 0 mps 627 mmHg 92%
    03:00 +15°C° 0 mm 0 mps 627 mmHg 92%
    04:00 +15°C° 0 mm 0 mps 627 mmHg 92%
    05:00 +15°C° 0 mm 0 mps 627 mmHg 92%
    06:00 +16°C° 0 mm 0 mps 628 mmHg 90%
    07:00 +18°C° 0 mm 0 mps 629 mmHg 88%
    08:00 +19°C° 0 mm 0 mps 630 mmHg 86%
    09:00 +21°C° 0.4 mm 0 mps 630 mmHg 81%
    10:00 +23°C° 0.4 mm 0 mps 631 mmHg 76%
    11:00 +25°C° 0.4 mm 0 mps 631 mmHg 70%
    12:00 +25°C° 0.7 mm 0 mps 630 mmHg 68%
    13:00 +27°C° 0.7 mm 1 mps 629 mmHg 66%
    14:00 +26°C° 0.7 mm 1 mps 628 mmHg 64%
    15:00 +26°C° 0.4 mm 1 mps 628 mmHg 69%
    16:00 +25°C° 0.4 mm 1 mps 628 mmHg 74%
    17:00 +24°C° 0.4 mm 1 mps 628 mmHg 79%
    18:00 +23°C° 0.4 mm 1 mps 628 mmHg 82%
    19:00 +21°C° 0.4 mm 1 mps 628 mmHg 86%
    20:00 +19°C° 0.4 mm 1 mps 628 mmHg 89%
    21:00 +19°C° 0.6 mm 1 mps 628 mmHg 91%
    22:00 +18°C° 0.6 mm 1 mps 628 mmHg 92%
    23:00 +18°C° 0.6 mm 1 mps 628 mmHg 94%

    8 April, Wednesday

    Time Temperature Precipitation Wind Pressure Humidity
    00:00 +18°C° 0.5 mm 1 mps 628 mmHg 94%
    01:00 +16°C° 0.5 mm 0 mps 627 mmHg 94%
    02:00 +15°C° 0.5 mm 0 mps 627 mmHg 95%
    03:00 +15°C° 0 mm 0 mps 627 mmHg 95%
    04:00 +15°C° 0 mm 0 mps 627 mmHg 95%
    05:00 +15°C° 0 mm 0 mps 627 mmHg 95%
    06:00 +16°C° 0 mm 0 mps 628 mmHg 92%
    07:00 +17°C° 0 mm 0 mps 629 mmHg 90%
    08:00 +19°C° 0 mm 0 mps 630 mmHg 88%
    09:00 +22°C° 0.7 mm 1 mps 630 mmHg 83%
    10:00 +24°C° 0.7 mm 1 mps 630 mmHg 79%
    11:00 +25°C° 0.7 mm 2 mps 631 mmHg 75%
    12:00 +25°C° 0.9 mm 2 mps 630 mmHg 75%
    13:00 +25°C° 0.9 mm 1 mps 629 mmHg 75%
    14:00 +25°C° 0.9 mm 1 mps 628 mmHg 76%
    15:00 +25°C° 1.8 mm 1 mps 628 mmHg 80%
    16:00 +24°C° 1.8 mm 1 mps 627 mmHg 85%
    17:00 +23°C° 1.8 mm 1 mps 627 mmHg 89%
    18:00 +22°C° 0.5 mm 1 mps 627 mmHg 91%
    19:00 +20°C° 0.5 mm 1 mps 627 mmHg 92%
    20:00 +19°C° 0.5 mm 1 mps 627 mmHg 93%
    21:00 +17°C° 0.1 mm 0 mps 627 mmHg 93%
    22:00 +16°C° 0.1 mm 0 mps 627 mmHg 92%
    23:00 +16°C° 0.1 mm 0 mps 627 mmHg 92%
    Show more